Starlink 30822

operational
NORAD ID: 58193 Int'l Des: 2023-167 Owner: SPXS Country: US Constellation: starlink
LEOCIRCULAR

Starlink 30822について

説明を読み込み中...

リアルタイム位置

3D地球を読み込み中...

次回通過

高度履歴

Altitude vs Time

uPlot chart will show altitude changes over time

軌道要素

1 58193U 23167U 25258.31297141 -.00000065 00000-0 10282-4 0 9994
2 58193 43.0051 18.9087 0001655 277.0204 83.0450 15.02536695104572
Epoch: Sep 15, 2025 • Age: 8 hours

現在のステータス

高度 558.4 km
速度 7.59 km/s
衛星直下点 15.39°N, 165.46°E
打ち上げ日 Oct 30, 2023
運用期間 1.8 years
タイプ internet

技術仕様

分類 Payload
質量 730.00 kg
乾燥質量 700.00 kg
総質量 730.00 kg
長さ 0.30 m
直径 4.10 m
スパン 29.00 m
形状 Box + pan
製造者 SPXS
バスタイプ Starlink V2M
フェーズステータス In Orbit
所有者/国 SPXS/US

大規模コンステレーション

Loading constellations...